Location: Rounton
(54.4000°N, 1.3500°W)
Time: 23:15:44
(UTC+00:00)

Vanguard 3 - Pass Details

Date: 30 November 2021
Orbit: 508 x 3260 km, 33.3° (Epoch: 17 January)

Event Time Altitude Azimuth Distance (km) Brightness Sun altitude
Rises 09:20:35 0° 262° (W) 6,556 11.5 7.1°
Reaches altitude 10° 09:27:08 10° 248° (WSW) 5,034 11.1 7.6°
Maximum altitude 09:35:12 18° 212° (SSW) 3,600 10.9 8.3°
Drops below altitude 10° 09:41:12 10° 172° (S) 3,572 11.9 8.7°
Sets 09:44:46 0° 154° (SSE) 4,118 13.2 9.0°
